FW9540 Weather Reports


time (UTC)temp
C
wind
direction
speed
KPH
gust
KPH
rain 1hr
cm
rain 24hr
cm
rain mn
cm
humidity
%
barometer
mb
20260506194708 12 36 0.0 0.0 0.00 0.00 0.00 92 1008.9
20260506194136 12 36 0.0 0.0 0.00 0.00 0.00 92 1008.9
20260506193648 12 36 0.0 1.6 0.00 0.00 0.00 92 1008.9
20260506192608 12 36 0.0 0.0 0.00 0.00 0.00 92 1008.8
20260506191439 12 36 0.0 0.0 0.00 0.00 0.00 91 1008.9
20260506190913 12 36 0.0 0.0 0.00 0.00 0.00 91 1008.9
20260506190505 12 36 0.0 0.0 0.00 0.00 0.00 91 1008.8
20260506185856 12 36 0.0 0.0 0.00 0.00 0.00 91 1008.8
20260506185340 12 36 0.0 3.2 0.00 0.00 0.00 91 1008.7
20260506184836 12 36 0.0 3.2 0.00 0.00 0.00 91 1008.6
20260506184334 13 36 0.0 1.6 0.00 0.00 0.00 91 1008.6
20260506183807 13 36 0.0 1.6 0.00 0.00 0.00 90 1008.5
20260506182737 13 36 0.0 0.0 0.00 0.00 0.00 90 1008.4
20260506182236 13 36 0.0 0.0 0.00 0.00 0.00 90 1008.4
20260506181705 13 36 0.0 1.6 0.00 0.00 0.00 90 1008.2
20260506181204 13 36 0.0 1.6 0.00 0.00 0.00 90 1008.2
20260506180637 13 36 0.0 1.6 0.00 0.00 0.00 89 1008.2
20260506180114 14 36 0.0 1.6 0.00 0.00 0.00 89 1008.2
20260506175543 14 36 0.0 0.0 0.00 0.00 0.00 88 1008.3
20260506175039 14 36 0.0 1.6 0.00 0.00 0.00 88 1008.2
20260506174514 15 36 0.0 0.0 0.00 0.00 0.00 88 1008.1
20260506173947 15 36 0.0 0.0 0.00 0.00 0.00 87 1008.1
20260506173418 15 36 0.0 0.0 0.00 0.00 0.00 87 1008.1
20260506172426 15 36 0.0 0.0 0.00 0.00 0.00 86 1007.9
20260506171913 15 36 0.0 1.6 0.00 0.00 0.00 86 1008.0
20260506171410 15 36 0.0 1.6 0.00 0.00 0.00 86 1007.9
20260506170859 15 36 0.0 1.6 0.00 0.00 0.00 86 1007.9
20260506170346 15 36 0.0 1.6 0.00 0.00 0.00 86 1007.8
20260506165845 15 36 0.0 1.6 0.00 0.00 0.00 87 1007.7
20260506165326 15 36 0.0 1.6 0.00 0.00 0.00 87 1007.7
20260506164836 15 36 0.0 0.0 0.00 0.00 0.00 88 1007.8
20260506164259 15 36 0.0 0.0 0.00 0.00 0.00 88 1007.7
20260506163730 15 36 0.0 0.0 0.00 0.00 0.00 88 1007.8
20260506163229 15 36 0.0 0.0 0.00 0.00 0.00 90 1007.8
20260506162700 14 36 0.0 0.0 0.00 0.00 0.00 89 1007.8
20260506162212 14 36 0.0 0.0 0.00 0.00 0.00 90 1007.9
20260506161644 14 36 0.0 0.0 0.00 0.00 0.00 90 1007.9
20260506161107 14 36 0.0 0.0 0.00 0.00 0.00 90 1008.0
20260506160540 14 36 0.0 0.0 0.00 0.00 0.00 90 1008.0
20260506160039 14 36 0.0 0.0 0.00 0.00 0.00 90 1007.8
20260506155510 14 36 0.0 0.0 0.00 0.00 0.00 90 1007.8
20260506154442 14 36 1.6 6.4 0.00 0.00 0.00 91 1007.6
20260506152854 13 36 1.6 4.8 0.00 0.00 0.00 91 1008.0
20260506151814 13 36 0.0 1.6 0.00 0.00 0.00 92 1008.0
20260506151305 13 36 0.0 1.6 0.00 0.00 0.00 92 1008.1
20260506150238 13 36 1.6 6.4 0.00 0.00 0.00 92 1008.1
20260506145710 13 36 1.6 6.4 0.00 0.00 0.00 91 1008.2
20260506145212 13 36 0.0 1.6 0.00 0.00 0.00 92 1008.3
20260506144705 13 36 0.0 3.2 0.00 0.00 0.00 92 1008.3
20260506144203 13 36 0.0 3.2 0.00 0.00 0.00 91 1008.2
20260506143653 13 36 0.0 0.0 0.00 0.00 0.00 91 1008.1
20260506143124 13 36 0.0 1.6 0.00 0.00 0.00 91 1008.1
20260506142536 13 36 0.0 1.6 0.00 0.00 0.00 91 1008.0
20260506141521 13 36 0.0 4.8 0.00 0.00 0.00 91 1007.9
20260506141007 13 36 0.0 4.8 0.00 0.00 0.00 91 1008.0
20260506140451 13 36 0.0 1.6 0.00 0.00 0.00 91 1008.1
20260506135936 13 36 0.0 3.2 0.00 0.00 0.00 91 1008.3
20260506134839 13 36 0.0 0.0 0.00 0.00 0.00 90 1008.2
20260506134338 13 36 0.0 1.6 0.00 0.00 0.00 90 1008.4
20260506132806 13 36 0.0 3.2 0.00 0.00 0.00 90 1008.4
20260506132317 14 35 0.0 3.2 0.00 0.00 0.00 90 1008.5
20260506131740 14 35 0.0 0.0 0.00 0.00 0.00 89 1008.4
20260506131220 14 35 0.0 0.0 0.00 0.00 0.00 89 1008.3
20260506130703 14 35 0.0 0.0 0.00 0.00 0.00 89 1008.3
20260506130201 14 35 0.0 0.0 0.00 0.00 0.00 88 1008.4
20260506125112 14 36 0.0 0.0 0.00 0.00 0.00 87 1008.5
20260506124610 14 36 0.0 0.0 0.00 0.00 0.00 85 1008.4
20260506124040 14 36 0.0 0.0 0.00 0.00 0.00 85 1008.5
20260506123014 15 36 0.0 1.6 0.00 0.00 0.00 85 1008.4
20260506122445 15 36 0.0 4.8 0.00 0.00 0.00 86 1008.3
20260506121942 15 36 0.0 4.8 0.00 0.00 0.00 85 1008.4
20260506120433 15 36 0.0 3.2 0.00 0.00 0.00 87 1008.4
20260506115933 15 36 0.0 3.2 0.00 0.00 0.00 87 1008.4
20260506115412 15 36 0.0 6.4 0.00 0.00 0.00 86 1008.6
20260506114842 15 30 0.0 6.4 0.00 0.00 0.00 87 1008.6
20260506113817 14 29 0.0 4.8 0.00 0.00 0.00 87 1008.8
20260506113248 14 29 0.0 6.4 0.00 0.00 0.00 88 1008.8
20260506112720 14 86 0.0 6.4 0.00 0.00 0.00 88 1008.8
20260506112219 14 50 0.0 3.2 0.00 0.00 0.00 89 1008.9
20260506111651 14 50 0.0 3.2 0.00 0.00 0.00 89 1008.9
20260506111151 14 36 1.6 4.8 0.00 0.00 0.00 89 1009.0
20260506110627 14 46 1.6 6.4 0.00 0.00 0.00 90 1009.0
20260506105607 13 199 0.0 0.0 0.00 0.00 0.00 91 1009.2
20260506105035 13 199 0.0 0.0 0.00 0.00 0.00 91 1009.3
20260506104506 13 199 0.0 0.0 0.00 0.00 0.00 91 1009.4
20260506104007 13 199 0.0 0.0 0.00 0.00 0.00 91 1009.4
20260506103443 13 199 0.0 1.6 0.00 0.00 0.00 91 1009.4
20260506102921 13 199 0.0 1.6 0.00 0.00 0.00 91 1009.4
20260506102417 13 195 0.0 0.0 0.00 0.00 0.00 91 1009.5
20260506101851 13 195 0.0 0.0 0.00 0.00 0.00 91 1009.5
20260506101348 13 195 0.0 0.0 0.00 0.00 0.00 91 1009.5
20260506100850 13 195 0.0 1.6 0.00 0.00 0.00 91 1009.4
20260506095843 13 196 0.0 0.0 0.00 0.00 0.00 92 1009.4
20260506095323 13 196 0.0 0.0 0.00 0.00 0.00 92 1009.4
20260506094823 13 196 0.0 0.0 0.00 0.00 0.00 92 1009.4
20260506093730 13 196 0.0 4.8 0.00 0.00 0.00 92 1009.4
20260506092703 13 197 0.0 4.8 0.00 0.00 0.00 93 1009.4
20260506092140 13 201 1.6 8.0 0.00 0.00 0.00 93 1009.4
20260506091639 12 201 1.6 8.0 0.00 0.00 0.00 93 1009.4
20260506091116 12 196 0.0 4.8 0.00 0.00 0.00 93 1009.4
20260506090616 12 184 0.0 4.8 0.00 0.00 0.00 93 1009.4
20260506090052 12 171 0.0 1.6 0.00 0.00 0.00 93 1009.4
20260506085527 12 171 0.0 6.4 0.00 0.00 0.00 93 1009.4
20260506085000 12 171 0.0 6.4 0.00 0.00 0.00 93 1009.3
20260506084500 12 168 0.0 6.4 0.00 0.00 0.00 93 1009.3
20260506083935 12 168 0.0 6.4 0.00 0.00 0.00 93 1009.3
20260506082916 12 168 0.0 4.8 0.00 0.00 0.00 93 1009.3
20260506081844 12 167 0.0 4.8 0.00 0.00 0.00 93 1009.1
20260506081344 12 167 0.0 4.8 0.00 0.00 0.00 93 1009.1
20260506080843 12 167 0.0 4.8 0.00 0.00 0.00 93 1009.1
20260506080338 12 167 0.0 1.6 0.00 0.00 0.00 93 1009.1
20260506073219 12 167 0.0 1.6 0.00 0.00 0.00 93 1009.2
20260506072656 12 182 0.0 1.6 0.00 0.00 0.00 93 1009.2
20260506071637 12 187 0.0 1.6 0.00 0.00 0.00 93 1009.4
20260506071137 12 187 0.0 0.0 0.00 0.00 0.00 93 1009.4
20260506070635 12 187 0.0 4.8 0.00 0.00 0.00 93 1009.5
20260506070132 12 187 1.6 4.8 0.00 0.00 0.00 93 1009.6
20260506062433 12 170 0.0 6.4 0.00 0.00 0.00 93 1009.2
20260506061431 12 170 0.0 3.2 0.00 0.00 0.00 93 1009.4
20260506060911 12 170 0.0 0.0 0.00 0.00 0.00 93 1009.4
20260506060354 12 170 0.0 0.0 0.00 0.00 0.00 93 1009.3
20260506051134 12 170 0.0 3.2 0.00 0.00 0.00 94 1009.4
20260506050627 12 170 0.0 0.0 0.00 0.00 0.00 94 1009.4
20260506050115 12 170 0.0 0.0 0.00 0.00 0.00 94 1009.2
20260506044550 12 170 0.0 0.0 0.00 0.00 0.00 94 1009.3
20260506044047 12 170 0.0 0.0 0.00 0.00 0.00 94 1009.3
20260506043020 12 170 0.0 0.0 0.00 0.00 0.00 94 1009.5
20260506041956 12 170 0.0 0.0 0.00 0.00 0.00 94 1009.5
20260506040431 12 170 0.0 0.0 0.00 0.00 0.00 94 1009.7
20260506035908 12 170 0.0 0.0 0.00 0.00 0.00 94 1009.7
20260506034340 12 170 0.0 0.0 0.00 0.00 0.00 94 1009.8
20260506033837 12 170 0.0 0.0 0.00 0.00 0.00 94 1009.9
20260506033337 12 170 0.0 0.0 0.00 0.00 0.00 94 1009.9
20260506031808 12 170 0.0 0.0 0.00 0.00 0.00 94 1010.0
20260506031308 12 170 0.0 0.0 0.00 0.00 0.00 94 1010.0
20260506030805 12 170 0.0 0.0 0.00 0.00 0.00 93 1010.1
20260506030305 12 170 0.0 0.0 0.00 0.00 0.00 93 1009.9
20260506025752 12 170 0.0 0.0 0.00 0.00 0.00 93 1010.1
20260506025250 12 170 0.0 0.0 0.00 0.00 0.00 94 1010.1
20260506024753 12 170 0.0 0.0 0.00 0.00 0.00 94 1010.3
20260506024237 12 170 0.0 0.0 0.00 0.00 0.00 94 1010.3
20260506023737 12 170 0.0 0.0 0.00 0.00 0.00 94 1010.1
20260506023215 12 170 0.0 1.6 0.00 0.00 0.00 94 1010.1
20260506022644 12 170 0.0 1.6 0.00 0.00 0.00 94 1010.1
20260506022124 12 170 0.0 1.6 0.00 0.00 0.00 94 1010.1
20260506021604 12 170 0.0 1.6 0.00 0.00 0.00 94 1010.3
20260506021055 12 170 0.0 1.6 0.00 0.00 0.00 94 1010.3
20260506020555 12 170 0.0 1.6 0.00 0.00 0.00 94 1010.5
20260506020033 12 170 0.0 0.0 0.00 0.00 0.00 94 1010.4
20260506015522 12 170 0.0 0.0 0.00 0.00 0.00 94 1010.5
20260506014504 12 170 0.0 0.0 0.00 0.00 0.00 94 1010.6
20260506014001 12 170 0.0 0.0 0.00 0.00 0.00 94 1010.5
20260506013447 12 170 0.0 0.0 0.00 0.00 0.00 94 1010.4
20260506012932 12 170 0.0 0.0 0.00 0.00 0.00 94 1010.5
20260506010833 12 170 0.0 0.0 0.00 0.00 0.00 93 1010.5
20260506010313 12 170 0.0 0.0 0.00 0.00 0.00 93 1010.5
20260506005815 12 170 0.0 0.0 0.00 0.00 0.00 93 1010.5
20260506005313 12 170 0.0 0.0 0.00 0.00 0.00 93 1010.4
20260506004742 12 170 0.0 0.0 0.00 0.00 0.00 93 1010.4
20260506004226 12 170 0.0 0.0 0.00 0.00 0.00 93 1010.4
20260506003726 12 170 0.0 0.0 0.00 0.00 0.00 93 1010.4
20260506002719 12 170 0.0 0.0 0.00 0.00 0.00 93 1010.5
20260506002216 12 170 0.0 0.0 0.00 0.00 0.00 93 1010.5
20260506001716 12 170 0.0 0.0 0.00 0.00 0.00 93 1010.6
20260506001213 12 170 0.0 0.0 0.00 0.00 0.00 93 1010.6
20260506000655 12 170 0.0 0.0 0.00 0.00 0.00 93 1010.7
20260506000149 12 170 0.0 1.6 0.00 0.00 0.00 93 1010.7
20260505235631 12 170 0.0 3.2 0.00 0.00 0.00 93 1010.7
20260505235108 12 170 0.0 3.2 0.00 0.00 0.00 93 1010.6
20260505234102 12 170 0.0 0.0 0.00 0.00 0.00 93 1010.7
20260505233014 12 170 0.0 1.6 0.00 0.00 0.00 93 1010.8
20260505232512 12 170 0.0 1.6 0.00 0.00 0.00 93 1010.9
20260505231952 12 170 0.0 0.0 0.00 0.00 0.00 93 1010.9
20260505231437 12 170 0.0 1.6 0.00 0.00 0.00 93 1011.0
20260505230938 12 170 0.0 1.6 0.00 0.00 0.00 93 1011.0
20260505230436 12 170 0.0 0.0 0.00 0.00 0.00 93 1011.0
20260505225935 12 170 0.0 0.0 0.00 0.00 0.00 93 1011.0
20260505225433 12 170 0.0 1.6 0.00 0.00 0.00 93 1011.0
20260505223913 12 170 0.0 1.6 0.00 0.00 0.00 92 1011.1
20260505223418 12 170 0.0 1.6 0.00 0.00 0.00 92 1011.0
20260505222848 12 170 0.0 0.0 0.00 0.00 0.00 93 1011.0
20260505221822 12 170 0.0 0.0 0.00 0.00 0.00 93 1011.0
20260505221324 12 170 0.0 0.0 0.00 0.00 0.00 93 1011.1
20260505220755 12 170 0.0 0.0 0.00 0.00 0.00 93 1011.1
20260505220233 12 170 0.0 0.0 0.00 0.00 0.00 93 1011.2
20260505215706 12 170 0.0 0.0 0.00 0.00 0.00 93 1011.2
20260505215140 12 170 0.0 0.0 0.00 0.00 0.00 93 1011.1
20260505214613 12 170 0.0 1.6 0.00 0.00 0.00 93 1011.2
20260505214109 12 170 0.0 1.6 0.00 0.00 0.00 93 1011.2
20260505213608 12 170 0.0 0.0 0.00 0.00 0.00 93 1011.3
20260505213042 12 170 0.0 0.0 0.00 0.00 0.00 92 1011.3
20260505212544 12 170 0.0 0.0 0.00 0.00 0.00 92 1011.4
20260505212019 12 170 0.0 0.0 0.00 0.00 0.00 92 1011.4
20260505211518 12 170 0.0 0.0 0.00 0.00 0.00 92 1011.3
20260505211016 12 170 0.0 0.0 0.00 0.00 0.00 92 1011.4
20260505210518 12 170 0.0 0.0 0.00 0.00 0.00 92 1011.5
20260505205426 12 170 0.0 0.0 0.00 0.00 0.00 92 1011.5
20260505204859 12 170 0.0 0.0 0.00 0.00 0.00 92 1011.5
20260505204336 12 170 0.0 0.0 0.00 0.00 0.00 92 1011.5
20260505203826 12 170 0.0 0.0 0.00 0.00 0.00 92 1011.5
20260505203322 12 170 0.0 1.6 0.00 0.00 0.00 92 1011.5
20260505202806 12 170 0.0 1.6 0.00 0.00 0.00 92 1011.6
20260505202248 12 170 0.0 3.2 0.00 0.00 0.00 92 1011.6
20260505201751 12 170 0.0 1.6 0.00 0.00 0.00 92 1011.5
20260505201219 12 170 0.0 1.6 0.00 0.00 0.00 92 1011.5
20260505200716 12 170 0.0 1.6 0.00 0.00 0.00 92 1011.5
20260505200206 12 170 0.0 1.6 0.00 0.00 0.00 92 1011.5
20260505195703 12 170 0.0 1.6 0.00 0.00 0.00 92 1011.5